Location: Aldenham
(51.6667°N, 0.3500°W)
Time: 17:06:48
(UTC+00:00)

MOS 1 Rocket - Pass Details

Date: 18 November 2025
Orbit: 610 x 813 km, 97.4° (Epoch: 09 December)

Event Time Altitude Azimuth Distance (km) Brightness Sun altitude
Rises 17:39:46 0° 160° (SSE) 2,884 6.4 -14.1°
Reaches altitude 10° 17:41:54 10° 158° (SSE) 1,998 5.6 -14.4°
Maximum altitude 17:46:13 75° 74° (ENE) 673 3.0 -15.0°
Drops below altitude 10° 17:50:48 10° 349° (N) 2,110 5.8 -15.7°
Sets 17:53:06 0° 348° (NNW) 3,061 6.6 -16.1°
